[[{"header":{"parameterUnit":"m.s-1","parameterCategory":1,"la1":30.2991,"la2":30.254,"lo1":-89.0895,"lo2":-89.0444,"dy":0.0017,"dx":0.0017,"nx":28,"ny":28,"refTime":"2025-12-28T03:00:00:Z","depth":0,"parameterNumber":2,"parameterNumberName":"U-component_of_WINDS"},"data":[0,0,0,0,0,0,0,0,0,0,0,0,0,0,0,0,0,0,0,0,0,0,0,0,0,0,0,0,0,0,0,0,0,0,0,0,0,0,0,0,0,0,0,0,0,0,0,0,0,0,0,0,0,0,0,0,0,0,-0.4126,-0.4126,0,-0.413,-0.413,-0.413,-0.4144,-0.4144,-0.4145,-0.4145,-0.4149,-0.4149,-0.4149,0,0,0,0,0,0,0,0,0,0,0,0,0,-0.413,-0.413,-0.4126,-0.4126,-0.4126,-0.413,-0.413,-0.413,-0.4144,-0.4144,-0.4145,-0.4145,-0.4149,-0.4149,-0.4149,0,0,0,0,0,0,0,0,0,0,0,0,0,-0.413,-0.413,-0.4126,-0.4133,-0.4134,-0.413,-0.413,-0.413,-0.4144,-0.4144,-0.4145,-0.4145,-0.4149,-0.4149,-0.4149,-0.4138,0,0,-0.4148,-0.4148,0,0,0,0,0,0,0,0,-0.413,-0.413,-0.4132,-0.4133,-0.4133,-0.4137,-0.4133,-0.4133,-0.4144,-0.414,-0.4145,-0.4146,-0.4145,-0.4145,-0.4145,-0.4138,-0.4138,-0.4148,-0.4148,-0.4148,-0.4148,0,0,0,0,0,0,0,-0.413,-0.413,-0.4127,-0.4132,-0.4133,-0.4136,-0.4137,-0.4133,-0.414,-0.414,-0.4142,-0.4142,-0.4145,-0.4145,-0.4145,-0.4138,-0.4148,-0.4148,-0.4148,-0.4148,-0.4122,-0.4121,0,0,0,0,0,0,-0.4129,-0.413,-0.4127,-0.4127,-0.4133,-0.4136,-0.4137,-0.4135,-0.414,-0.4141,-0.4141,-0.4142,-0.4145,-0.4145,-0.4145,-0.4131,-0.4148,-0.4148,-0.4147,-0.4122,-0.4121,-0.4121,0,0,0,0,0,0,-0.4129,-0.4129,-0.4127,-0.4129,-0.4129,-0.4135,-0.4134,-0.4135,-0.4135,-0.4141,-0.4142,-0.414,-0.4146,-0.4146,-0.4139,-0.4132,-0.4147,-0.4147,-0.4123,-0.4122,-0.4121,-0.4104,0,0,0,0,0,0,-0.4129,-0.4129,-0.4124,-0.4129,-0.4129,-0.4121,-0.4133,-0.4135,-0.4134,-0.4136,-0.4139,-0.414,-0.4146,-0.414,-0.4139,-0.4132,-0.4147,-0.4123,-0.4122,-0.4121,-0.4106,-0.4103,-0.4101,0,0,0,0,0,-0.4129,-0.412,-0.4124,-0.4124,-0.4124,-0.4121,-0.4121,-0.4127,-0.4134,-0.4129,-0.4133,-0.414,-0.4133,-0.4139,-0.4138,-0.4131,-0.4124,-0.4123,-0.4122,-0.4107,-0.4104,-0.4101,0,0,0,0,0,0,-0.4115,-0.412,-0.4125,-0.4117,-0.4118,-0.4123,-0.4118,-0.4124,-0.4123,-0.4124,-0.4133,-0.4133,-0.4126,-0.4128,-0.4134,-0.412,-0.413,-0.4128,-0.4119,-0.4116,-0.4113,-0.4113,-0.4147,0,0,0,0,0,-0.411,-0.4107,-0.4113,-0.4105,-0.4105,-0.4111,-0.411,-0.4115,-0.4117,-0.4117,-0.412,-0.4122,-0.4119,-0.4118,-0.4116,-0.4106,-0.4107,-0.4101,-0.4099,-0.4097,-0.4095,-0.4089,-0.4086,-0.4117,-0.4117,-0.4117,0,0,-0.4102,-0.4104,-0.4102,-0.4102,-0.4103,-0.41,-0.4112,-0.4107,-0.4105,-0.4117,-0.411,-0.4113,-0.4115,-0.4106,-0.4103,-0.4108,-0.4087,-0.4095,-0.4094,-0.4093,-0.4088,-0.4085,-0.4082,-0.4116,-0.4116,-0.4116,0,0,-0.4084,-0.4086,-0.4079,-0.408,-0.4082,-0.4086,-0.4085,-0.4088,-0.409,-0.4084,-0.4093,-0.409,-0.4087,-0.4087,-0.4087,-0.4069,-0.4075,-0.4068,-0.4056,-0.405,-0.4048,-0.4045,-0.4038,-0.4035,-0.4067,-0.4067,-0.4067,0,-0.4072,-0.4067,-0.4075,-0.407,-0.4069,-0.408,-0.4073,-0.4073,-0.4075,-0.4074,-0.408,-0.4075,-0.4077,-0.4069,-0.4064,-0.4064,-0.4062,-0.4068,-0.4047,-0.4045,-0.4043,-0.4036,-0.4034,-0.4066,-0.4066,-0.4066,-0.4066,0,-0.4053,-0.4049,-0.4044,-0.4044,-0.4043,-0.4037,-0.4043,-0.4041,-0.4047,-0.405,-0.4044,-0.4047,-0.4045,-0.4044,-0.4049,-0.4036,-0.4039,-0.4046,-0.4056,-0.4039,-0.4033,-0.403,-0.4065,-0.4065,-0.4065,-0.4066,0,0,-0.4025,-0.403,-0.4028,-0.4028,-0.4031,-0.4028,-0.4022,-0.4021,-0.4019,-0.4019,-0.4014,-0.4011,-0.4017,-0.4017,-0.4023,-0.4018,-0.4002,-0.4025,-0.4025,-0.402,-0.3986,-0.398,-0.3977,-0.4006,-0.4006,-0.4006,-0.3986,0,-0.4007,-0.3998,-0.4004,-0.3993,-0.399,-0.3999,-0.3995,-0.3996,-0.3999,-0.3996,-0.4,-0.3997,-0.4006,-0.4006,-0.4001,-0.4005,-0.3995,-0.4006,-0.4001,-0.4001,-0.3999,-0.3974,-0.3967,-0.3949,-0.3983,-0.3983,-0.3983,0,-0.3985,-0.3984,-0.3973,-0.3976,-0.3974,-0.397,-0.3969,-0.3966,-0.3967,-0.397,-0.397,-0.3976,-0.3971,-0.3981,-0.3973,-0.3981,-0.3979,-0.3981,-0.398,-0.3979,-0.399,-0.3971,-0.3943,-0.3939,-0.3979,-0.3979,-0.398,0,-0.3964,-0.3961,-0.3953,-0.3953,-0.3957,-0.3953,-0.3954,-0.3956,-0.3955,-0.3954,-0.3953,-0.3952,-0.3951,-0.395,-0.3956,-0.3963,-0.3947,-0.3958,-0.3948,-0.3948,-0.3943,-0.3943,-0.3913,-0.3944,-0.3944,-0.3944,-0.3944,0,-0.3943,-0.3935,-0.3944,-0.3939,-0.3931,-0.3938,-0.393,-0.3932,-0.3934,-0.393,-0.3939,-0.3935,-0.3943,-0.394,-0.3945,-0.3937,-0.3937,-0.3938,-0.3939,-0.3937,-0.3936,-0.3935,-0.3936,-0.3944,-0.3944,-0.3944,-0.3944,0,-0.3918,-0.3924,-0.3916,-0.392,-0.3921,-0.3914,-0.3918,-0.3913,-0.3917,-0.3912,-0.3911,-0.3917,-0.3913,-0.3919,-0.3917,-0.392,-0.3908,-0.3912,-0.3908,-0.3908,-0.3898,-0.3898,-0.3865,-0.3861,-0.3895,-0.3895,-0.3895,0,-0.3904,-0.3898,-0.3901,-0.3899,-0.3899,-0.3896,-0.3894,-0.3902,-0.39,-0.39,-0.3896,-0.3893,-0.3891,-0.3885,-0.3889,-0.3887,-0.389,-0.3878,-0.389,-0.3887,-0.3888,-0.3888,-0.3887,-0.3876,-0.3875,-0.3875,-0.3875,0,-0.3877,-0.388,-0.3877,-0.3875,-0.3873,-0.3872,-0.3871,-0.3869,-0.3877,-0.3874,-0.387,-0.3869,-0.3866,-0.3863,-0.3862,-0.3863,-0.387,-0.3871,-0.3869,-0.3865,-0.3862,-0.3863,-0.39,-0.3872,-0.3872,-0.3872,-0.3872,-0.3873,-0.3856,-0.3851,-0.3852,-0.3849,-0.3849,-0.3848,-0.3844,-0.3847,-0.3844,-0.3842,-0.3847,-0.3842,-0.3843,-0.3842,-0.3843,-0.3839,-0.3844,-0.384,-0.3839,-0.3838,-0.3836,-0.3864,-0.3839,-0.3839,-0.3839,-0.3839,-0.3839,0,-0.3828,-0.383,-0.3826,-0.3825,-0.3822,-0.3829,-0.3829,-0.3826,-0.3822,-0.3822,-0.382,-0.3815,-0.3812,-0.3816,-0.3813,-0.3809,-0.3812,-0.3808,-0.3808,-0.3808,-0.3832,-0.3834,-0.3806,-0.3806,-0.3806,-0.3806,-0.3806,-0.3806,-0.3814,-0.3805,-0.3808,-0.38,-0.3801,-0.3796,-0.3795,-0.3795,-0.3795,-0.3789,-0.3786,-0.3789,-0.3791,-0.3788,-0.3786,-0.3787,-0.3785,-0.3779,-0.3782,-0.3803,-0.3807,-0.381,-0.3811,-0.3779,-0.3779,-0.3758,-0.3758,-0.3758]},{"header":{"parameterUnit":"m.s-1","parameterCategory":1,"la1":30.2991,"la2":30.254,"lo1":-89.0895,"lo2":-89.0444,"dy":0.0017,"dx":0.0017,"nx":28,"ny":28,"refTime":"2025-12-28T03:00:00:Z","depth":0,"parameterNumber":3,"parameterNumberName":"V-component_of_WINDS"},"data":[0,0,0,0,0,0,0,0,0,0,0,0,0,0,0,0,0,0,0,0,0,0,0,0,0,0,0,0,0,0,0,0,0,0,0,0,0,0,0,0,0,0,0,0,0,0,0,0,0,0,0,0,0,0,0,0,0,0,2.6926,2.6926,0,2.698,2.698,2.6981,2.6992,2.6992,2.6991,2.6991,2.7042,2.7044,2.7046,0,0,0,0,0,0,0,0,0,0,0,0,0,2.683,2.6832,2.6926,2.6926,2.6927,2.6979,2.698,2.6981,2.6992,2.6991,2.6991,2.6991,2.7042,2.7044,2.7046,0,0,0,0,0,0,0,0,0,0,0,0,0,2.6876,2.6832,2.6926,2.6939,2.6941,2.6979,2.698,2.6981,2.6992,2.6991,2.6991,2.699,2.7041,2.7043,2.7046,2.7074,0,0,2.7054,2.7055,0,0,0,0,0,0,0,0,2.6874,2.688,2.6936,2.6938,2.694,2.6979,2.6965,2.7012,2.6992,2.6972,2.6991,2.699,2.7021,2.7025,2.7037,2.7076,2.7079,2.7054,2.7056,2.7057,2.7058,0,0,0,0,0,0,0,2.687,2.6878,2.6947,2.6937,2.694,2.6941,2.6947,2.6974,2.6999,2.6974,2.6975,2.6982,2.7022,2.7034,2.7038,2.7079,2.7054,2.7056,2.7058,2.7059,2.7146,2.7147,0,0,0,0,0,0,2.6865,2.6875,2.6945,2.6949,2.6905,2.6944,2.695,2.6967,2.6999,2.7004,2.6982,2.6982,2.703,2.7035,2.704,2.7076,2.7057,2.7059,2.7061,2.7145,2.7146,2.7147,0,0,0,0,0,0,2.6863,2.6872,2.6943,2.6912,2.6921,2.6946,2.6964,2.6968,2.698,2.7005,2.7009,2.699,2.703,2.7036,2.7066,2.7078,2.7061,2.7063,2.7145,2.7146,2.7147,2.7148,0,0,0,0,0,0,2.686,2.6871,2.6882,2.6912,2.6923,2.6969,2.6965,2.697,2.6985,2.6985,2.7014,2.7018,2.703,2.7062,2.7069,2.7081,2.7065,2.7144,2.7145,2.7146,2.7147,2.7149,2.715,0,0,0,0,0,2.6857,2.6879,2.6883,2.6891,2.6938,2.697,2.6976,2.699,2.6986,2.6997,2.7014,2.7017,2.7075,2.7065,2.7072,2.7086,2.7143,2.7145,2.7146,2.7146,2.7148,2.715,0,0,0,0,0,0,2.6848,2.6883,2.6887,2.692,2.6942,2.6972,2.6986,2.6992,2.7015,2.7014,2.703,2.7036,2.7065,2.7078,2.7066,2.7116,2.7109,2.7112,2.7106,2.7109,2.711,2.7107,2.7067,0,0,0,0,0,2.685,2.6874,2.6903,2.6929,2.694,2.6961,2.6976,2.6985,2.7008,2.7017,2.7035,2.7056,2.708,2.7095,2.7117,2.7149,2.7155,2.7162,2.7163,2.7165,2.7168,2.7186,2.719,2.7153,2.7153,2.7153,0,0,2.6854,2.6876,2.689,2.6928,2.6946,2.697,2.6969,2.6994,2.7012,2.702,2.7051,2.7065,2.7089,2.712,2.7135,2.7132,2.7179,2.7167,2.7168,2.717,2.7188,2.7192,2.7195,2.7154,2.7154,2.7153,0,0,2.6874,2.6893,2.6917,2.6936,2.6964,2.6979,2.6984,2.7014,2.7024,2.7055,2.7062,2.7083,2.7122,2.714,2.7155,2.7183,2.7187,2.719,2.7199,2.7218,2.7221,2.7223,2.7234,2.7238,2.7192,2.7192,2.7192,0,2.6875,2.6912,2.6929,2.6955,2.6971,2.6982,2.7007,2.7023,2.7057,2.7068,2.7064,2.7116,2.7133,2.7169,2.7176,2.7187,2.7194,2.7187,2.7219,2.7222,2.7225,2.7235,2.7239,2.7192,2.7192,2.7192,2.7192,0,2.6913,2.6939,2.6955,2.699,2.7008,2.7033,2.7053,2.7069,2.7077,2.7092,2.7123,2.7144,2.7172,2.7181,2.7189,2.7219,2.7217,2.7216,2.721,2.7228,2.7239,2.7243,2.7193,2.7193,2.7193,2.7193,0,0,2.6928,2.6973,2.6978,2.6995,2.7027,2.7047,2.7073,2.7102,2.7116,2.7139,2.7161,2.7195,2.7195,2.7211,2.722,2.7236,2.7259,2.7234,2.7235,2.7239,2.7295,2.7296,2.7301,2.7262,2.7262,2.7263,2.7293,0,2.6953,2.7001,2.7017,2.7056,2.7081,2.7091,2.7114,2.7136,2.715,2.7172,2.7188,2.7212,2.721,2.722,2.7236,2.7253,2.7271,2.7251,2.7282,2.7283,2.7277,2.7306,2.7307,2.7334,2.7297,2.7298,2.7298,0,2.6988,2.7014,2.7056,2.7087,2.7098,2.7118,2.7147,2.7168,2.7193,2.7202,2.7221,2.723,2.7257,2.7249,2.7286,2.7272,2.7286,2.7296,2.7298,2.7302,2.7292,2.7312,2.7343,2.7348,2.7305,2.7304,2.7304,0,2.6997,2.7041,2.7073,2.7086,2.7123,2.7137,2.7152,2.7177,2.7194,2.7219,2.723,2.7256,2.7271,2.7291,2.7307,2.7299,2.7343,2.7336,2.7352,2.7352,2.7361,2.736,2.7396,2.7368,2.7368,2.7368,2.7368,0,2.7023,2.7049,2.7078,2.7097,2.7126,2.7144,2.7172,2.7188,2.7211,2.7233,2.7243,2.7263,2.7282,2.7305,2.7317,2.7347,2.7353,2.7362,2.7365,2.7361,2.7361,2.7371,2.737,2.7369,2.7369,2.7369,2.7369,0,2.7038,2.7058,2.7094,2.7126,2.7135,2.7155,2.7182,2.7201,2.7216,2.7245,2.7252,2.7276,2.7304,2.7321,2.7356,2.7364,2.7397,2.7399,2.7389,2.7391,2.7406,2.7405,2.7451,2.7458,2.7424,2.7424,2.7425,0,2.7054,2.7075,2.711,2.7126,2.7143,2.7169,2.7187,2.7205,2.7223,2.7254,2.727,2.7298,2.7322,2.7366,2.7386,2.7413,2.7416,2.743,2.742,2.7416,2.7417,2.7416,2.7419,2.7432,2.7432,2.7432,2.7433,0,2.7081,2.7091,2.7117,2.7147,2.7168,2.7192,2.7216,2.7229,2.7251,2.7271,2.73,2.7319,2.7356,2.7384,2.7413,2.7428,2.7434,2.7436,2.7441,2.7438,2.7432,2.7437,2.7395,2.7435,2.7434,2.7434,2.7434,2.7434,2.7098,2.7117,2.7146,2.7175,2.7195,2.7217,2.7238,2.7256,2.7282,2.7314,2.7323,2.7354,2.7379,2.7419,2.7435,2.7459,2.7457,2.7464,2.7466,2.7468,2.7469,2.7428,2.7464,2.7464,2.7464,2.7464,2.7464,0,2.7126,2.7146,2.7172,2.7207,2.723,2.7234,2.7261,2.728,2.7308,2.7332,2.7356,2.739,2.7418,2.7441,2.7469,2.7484,2.7488,2.7491,2.7491,2.7495,2.7468,2.7462,2.7488,2.7488,2.7488,2.7488,2.7488,2.7488,2.7144,2.7178,2.719,2.7234,2.7253,2.7285,2.73,2.7321,2.734,2.7378,2.7403,2.7417,2.7441,2.7472,2.7498,2.7503,2.7514,2.7517,2.7524,2.7499,2.7496,2.7494,2.7487,2.7519,2.7519,2.7548,2.7548,2.7548]}]]